sat.trackr.live / text

‹ back to catalog

STARLINK-31334

NORAD 59157 · 2024-044F

PAYLOAD ACTIVE UNKNOWN

§ Identity

Operator
Country
US
Launch date
2024-03-04
Launch site
AFETR
Launch vehicle
Mass (kg)
RCS (m²)

Purposes: comms

External: N2YO · Heavens-Above · Gunter

§ Orbital elements

Epoch: 2026-05-25T02:56:03.333120Z

Period
94.27 min
Inclination
42.9988°
Eccentricity
0.0001417
Mean motion
15.27585663 rev/d
Perigee alt
482.1 km
Apogee alt
484.0 km
Semi-major
6,861.2 km
B*
1.4385e-4
RAAN
38.9314°
Arg perigee
265.7404°
Mean anomaly
94.3286°
Rev number
12,521

§ Raw data

STARLINK-313341 59157U 24044F   26145.12226080  .00003699  00000+0  14385-3 0  99902 59157  42.9988  38.9314 0001417 265.7404  94.3286 15.27585663125219

JSON: /api/v1/satellites/59157 · /tle

For live sub-satellite position, see the globe view (requires WebGL).

§ Visibility from observer

Set your observer location to see the next 7 days of passes ≥ 10°. The values pass through the URL so the page stays shareable.

No JS? Fill the form by hand. The geolocation button needs JavaScript.